525  
ASUS44 KSHV 191910  
RWRSHV  
 
THE FOUR STATE AREA WEATHER ROUNDUP  
NATIONAL WEATHER SERVICE SHREVEPORT LA  
100 PM CST TUE JAN 19 2021  
 
NOTE: "FAIR" INDICATES FEW OR NO CLOUDS BELOW 12000 FEET  
WITH NO SIGNIFICANT WEATHER AND/OR S TO VISIBILITY
.  
 
!LAZ001-LAZ014-TXZ097-192000  
SHREVEPORT...MONROE...TEXARKANA RADIOS  
 
CITY SKY/WX TMP DP RH WIND PRES REMARKS
 
SHREVEPORT LGT RAIN 53 49 86 CALM 30.29F FOG  
MONROE CLOUDY 56 45 66 NE7 30.32S  
NATCHITOCHES PTSUNNY 69 52 54 CALM 30.27S  
TEXARKANA CLOUDY 54 49 83 N3 30.32S  

 
 
!LAZ001-LAZ014-TXZ097-192000  
OTHER LOCATIONS...  
 
CITY SKY/WX TMP DP RH WIND PRES REMARKS
 
DOWNTOWN SHV RAIN 51 50 96 CALM 30.30S FOG  
BOSSIER CITY RAIN 51 50 94 N5 30.28F FOG  
RUSTON RAIN 53 46 76 CALM 30.34S  
LITTLE ROCK MOSUNNY 59 30 33 NE7 30.32F  
EL DORADO LGT RAIN 52 49 89 CALM 30.31F  
JACKSON CLOUDY 60 39 45 NE6 30.29F  
NEW ORLEANS MOSUNNY 71 51 49 S15 30.28F  
HOUSTON MOSUNNY 76 56 49 SE15 30.21F  
LUFKIN CLOUDY 68 58 70 S5 30.23F  
TYLER RAIN 53 51 93 NE6 30.28F FOG  
DAL FT WORTH CLOUDY 54 30 40 N14 30.33F  

 
 
!TXZ136-TXZ165-192000  
TYLER...LUFKIN RADIOS  
 
CITY SKY/WX TMP DP RH WIND PRES REMARKS
 
TYLER RAIN 53 51 93 NE6 30.28F FOG  
GILMER LGT RAIN 51 50 96 N7 30.30F  
LONGVIEW LGT RAIN 52 50 93 N3 30.28F FOG  
LUFKIN CLOUDY 68 58 70 S5 30.23F  

 
 
!TXZ136-TXZ165-192000  
OTHER LOCATIONS...  
 
CITY SKY/WX TMP DP RH WIND PRES REMARKS
 
NACOGDOCHES CLOUDY 64 57 78 N7 30.26F  
BEAUMONT PTSUNNY 72 54 53 S17G23 30.25F  
HOUSTON MOSUNNY 76 56 49 SE15 30.21F  
COLLEGE STN CLOUDY 72 60 66 S13 30.20S  
AUSTIN LGT RAIN 71 64 78 S6 30.20S  
DAL FT WORTH CLOUDY 54 30 40 N14 30.33F  
TEXARKANA CLOUDY 54 49 83 N3 30.32S  
SHREVEPORT LGT RAIN 53 49 86 CALM 30.29F FOG  
FORT POLK CLOUDY 71 52 51 S13 30.27S  
LAKE CHARLES SUNNY 71 56 58 S15G24 30.27S  

 
 
 
CLICK HERE TO GO TO PREVIOUS BULLETINS.

The Nexlab LA Page
The Nexlab TX Page
The Nexlab AR Page
The Nexlab OK Page Main Text Page